�������l�o���
Date,Time,MP-1(��Sv/h),MP-2(��Sv/h),MP-3(��Sv/h),MP-4(��Sv/h),MP-5(��Sv/h),MP-6(��Sv/h),MP-7(��Sv/h),MP-8(��Sv/h),����,����(m/s),���J
2018/08/23,00:00,0.868,1.273,0.895,1.598,1.171,0.478,0.842,0.795,��,7.4,��
2018/08/23,00:10,0.865,1.276,0.895,1.599,1.168,0.479,0.841,0.795,��,7.2,��
2018/08/23,00:20,0.866,1.275,0.896,1.597,1.168,0.479,0.843,0.794,��쐼,7.4,��
2018/08/23,00:30,0.866,1.273,0.895,1.597,1.170,0.478,0.841,0.794,��쐼,6.0,��
2018/08/23,00:40,0.866,1.271,0.896,1.597,1.171,0.480,0.843,0.795,�쐼,6.6,��
2018/08/23,00:50,0.867,1.273,0.896,1.599,1.170,0.479,0.843,0.794,��쐼,5.8,��
2018/08/23,01:00,0.865,1.273,0.896,1.598,1.169,0.480,0.843,0.795,��쐼,6.5,��
2018/08/23,01:10,0.868,1.272,0.896,1.600,1.168,0.480,0.843,0.794,��쐼,6.0,��
2018/08/23,01:20,0.867,1.271,0.897,1.599,1.168,0.480,0.844,0.794,��쐼,6.1,��
2018/08/23,01:30,0.867,1.273,0.895,1.601,1.171,0.477,0.841,0.794,��쐼,4.4,��
2018/08/23,01:40,0.866,1.274,0.896,1.597,1.170,0.480,0.843,0.794,��,5.7,��
2018/08/23,01:50,0.867,1.270,0.896,1.601,1.170,0.478,0.843,0.796,��쐼,6.0,��
2018/08/23,02:00,0.864,1.273,0.896,1.598,1.171,0.478,0.842,0.795,��쐼,5.2,��
2018/08/23,02:10,0.866,1.272,0.896,1.600,1.170,0.478,0.843,0.793,��,5.7,��
2018/08/23,02:20,0.867,1.273,0.895,1.599,1.169,0.478,0.843,0.796,��,5.3,��
2018/08/23,02:30,0.866,1.273,0.896,1.599,1.169,0.478,0.843,0.794,��,5.5,��
2018/08/23,02:40,0.866,1.274,0.897,1.598,1.172,0.480,0.844,0.796,��,5.0,��
2018/08/23,02:50,0.866,1.276,0.897,1.598,1.169,0.479,0.843,0.796,��,4.6,��
2018/08/23,03:00,0.865,1.273,0.897,1.601,1.170,0.479,0.841,0.795,��,5.5,��
2018/08/23,03:10,0.866,1.272,0.899,1.600,1.169,0.479,0.843,0.795,��,6.0,��
2018/08/23,03:20,0.866,1.273,0.897,1.597,1.170,0.478,0.842,0.796,��,7.0,��
2018/08/23,03:30,0.868,1.269,0.897,1.599,1.169,0.478,0.842,0.794,��,7.3,��
2018/08/23,03:40,0.866,1.274,0.895,1.598,1.171,0.478,0.842,0.794,��,7.3,��
2018/08/23,03:50,0.866,1.274,0.898,1.598,1.168,0.477,0.841,0.795,��,6.6,��
2018/08/23,04:00,0.865,1.273,0.895,1.596,1.168,0.478,0.842,0.795,��,6.5,��
2018/08/23,04:10,0.865,1.274,0.895,1.597,1.168,0.478,0.843,0.794,��,7.1,��
2018/08/23,04:20,0.866,1.274,0.895,1.600,1.166,0.479,0.840,0.794,��,8.0,��
2018/08/23,04:30,0.868,1.273,0.897,1.598,1.170,0.478,0.842,0.796,��,7.7,��
2018/08/23,04:40,0.864,1.274,0.897,1.597,1.169,0.479,0.843,0.794,��,7.8,��
2018/08/23,04:50,0.865,1.276,0.895,1.597,1.169,0.477,0.843,0.794,��,7.2,��
2018/08/23,05:00,0.863,1.272,0.895,1.600,1.170,0.478,0.841,0.795,��,6.7,��
2018/08/23,05:10,0.864,1.272,0.895,1.601,1.169,0.479,0.842,0.796,��,6.5,��
2018/08/23,05:20,0.864,1.275,0.897,1.596,1.168,0.478,0.841,0.796,��쐼,4.9,��
2018/08/23,05:30,0.866,1.272,0.897,1.599,1.167,0.477,0.841,0.796,��,4.2,��
2018/08/23,05:40,0.865,1.274,0.897,1.598,1.168,0.478,0.843,0.793,��,4.0,��
2018/08/23,05:50,0.867,1.274,0.896,1.597,1.167,0.477,0.841,0.796,��,4.5,��
2018/08/23,06:00,0.862,1.274,0.895,1.596,1.170,0.475,0.841,0.795,��,4.1,��
2018/08/23,06:10,0.864,1.274,0.894,1.597,1.168,0.478,0.843,0.794,��,4.6,��
2018/08/23,06:20,0.864,1.274,0.898,1.599,1.166,0.478,0.843,0.797,��쐼,4.2,��
2018/08/23,06:30,0.865,1.272,0.896,1.598,1.168,0.478,0.843,0.795,��,3.8,��
2018/08/23,06:40,0.861,1.274,0.898,1.602,1.166,0.478,0.841,0.796,��쓌,3.8,��
2018/08/23,06:50,0.866,1.272,0.896,1.599,1.168,0.479,0.841,0.795,��,4.6,��
2018/08/23,07:00,0.863,1.275,0.897,1.595,1.168,0.477,0.843,0.795,��,4.8,��
2018/08/23,07:10,0.864,1.272,0.896,1.599,1.166,0.477,0.841,0.795,��,4.3,��
2018/08/23,07:20,0.865,1.271,0.894,1.599,1.167,0.478,0.842,0.795,��,3.8,��
2018/08/23,07:30,0.863,1.273,0.895,1.597,1.167,0.477,0.842,0.794,��쓌,4.0,��
2018/08/23,07:40,0.867,1.273,0.895,1.597,1.166,0.478,0.841,0.796,��쓌,4.8,��
2018/08/23,07:50,0.867,1.271,0.895,1.597,1.167,0.477,0.842,0.795,��쓌,5.9,��
2018/08/23,08:00,0.865,1.273,0.895,1.597,1.168,0.478,0.843,0.794,��쓌,6.1,��
2018/08/23,08:10,0.865,1.273,0.895,1.597,1.167,0.478,0.843,0.795,��,5.6,��
2018/08/23,08:20,0.866,1.274,0.896,1.599,1.168,0.478,0.843,0.796,��,5.0,��
2018/08/23,08:30,0.868,1.273,0.894,1.598,1.169,0.479,0.843,0.794,��,6.0,��
2018/08/23,08:40,0.865,1.271,0.895,1.598,1.169,0.478,0.844,0.794,��,6.1,��
2018/08/23,08:50,0.865,1.271,0.896,1.596,1.168,0.479,0.845,0.794,��쓌,5.0,��
2018/08/23,09:00,0.864,1.272,0.893,1.595,1.168,0.479,0.843,0.795,��,4.5,��
2018/08/23,09:10,0.868,1.268,0.895,1.598,1.171,0.479,0.844,0.794,��,5.2,��
2018/08/23,09:20,0.865,1.270,0.896,1.598,1.172,0.479,0.843,0.794,��,6.0,��
2018/08/23,09:30,0.865,1.270,0.896,1.598,1.170,0.478,0.843,0.794,��,7.2,��
2018/08/23,09:40,0.866,1.274,0.895,1.598,1.172,0.479,0.841,0.794,��,7.8,��
2018/08/23,09:50,0.866,1.273,0.896,1.597,1.173,0.478,0.842,0.795,��,7.0,��
2018/08/23,10:00,0.866,1.276,0.897,1.598,1.172,0.478,0.843,0.794,��,7.7,��
2018/08/23,10:10,0.866,1.273,0.893,1.598,1.172,0.478,0.844,0.794,��,8.3,��
2018/08/23,10:20,0.867,1.274,0.898,1.600,1.173,0.477,0.841,0.795,��,8.0,��
2018/08/23,10:30,0.867,1.274,0.895,1.598,1.172,0.477,0.843,0.794,��,6.6,��
2018/08/23,10:40,0.866,1.273,0.898,1.598,1.176,0.477,0.844,0.795,��,7.2,��
2018/08/23,10:50,0.868,1.272,0.897,1.599,1.176,0.478,0.843,0.795,��,8.8,��
2018/08/23,11:00,0.866,1.273,0.897,1.598,1.175,0.476,0.844,0.795,��,11.6,��
2018/08/23,11:10,0.868,1.275,0.896,1.600,1.176,0.476,0.843,0.795,��,10.5,��
2018/08/23,11:20,0.868,1.278,0.898,1.601,1.174,0.476,0.842,0.795,��,9.6,��
2018/08/23,11:30,0.868,1.276,0.900,1.599,1.177,0.475,0.844,0.795,��,9.5,��
2018/08/23,11:40,0.867,1.273,0.900,1.597,1.175,0.477,0.844,0.796,��쓌,9.3,��
2018/08/23,11:50,0.867,1.276,0.898,1.597,1.177,0.477,0.844,0.796,��쓌,9.4,��
2018/08/23,12:00,0.867,1.278,0.900,1.597,1.176,0.477,0.843,0.796,��,10.2,��
2018/08/23,12:10,0.865,1.278,0.899,1.599,1.179,0.478,0.845,0.795,��,10.6,��
2018/08/23,12:20,0.867,1.275,0.899,1.600,1.176,0.477,0.844,0.794,��쓌,12.2,��
2018/08/23,12:30,0.868,1.280,0.900,1.598,1.177,0.477,0.847,0.795,��,11.9,��
2018/08/23,12:40,0.866,1.277,0.898,1.598,1.176,0.478,0.846,0.795,��,11.1,��
2018/08/23,12:50,0.869,1.274,0.896,1.600,1.175,0.477,0.845,0.794,��,11.7,��
2018/08/23,13:00,0.866,1.276,0.895,1.601,1.175,0.477,0.846,0.796,��,10.9,��
2018/08/23,13:10,0.867,1.274,0.899,1.603,1.174,0.476,0.846,0.795,��,10.5,��
2018/08/23,13:20,0.867,1.277,0.898,1.605,1.177,0.477,0.846,0.796,��,11.8,��
2018/08/23,13:30,0.865,1.276,0.898,1.600,1.178,0.478,0.846,0.797,��,13.3,��
2018/08/23,13:40,0.868,1.277,0.897,1.602,1.176,0.478,0.846,0.796,��,11.3,��
2018/08/23,13:50,0.867,1.275,0.897,1.603,1.178,0.478,0.847,0.795,��,11.8,��
2018/08/23,14:00,0.866,1.273,0.898,1.602,1.177,0.478,0.847,0.797,��,12.8,��
2018/08/23,14:10,0.867,1.276,0.899,1.603,1.179,0.477,0.846,0.796,��쓌,13.5,��
2018/08/23,14:20,0.869,1.274,0.898,1.603,1.179,0.476,0.846,0.796,��,13.5,��
2018/08/23,14:30,0.866,1.278,0.897,1.603,1.174,0.477,0.844,0.796,��,11.3,��
2018/08/23,14:40,0.867,1.275,0.899,1.602,1.175,0.476,0.844,0.796,��,11.6,��
2018/08/23,14:50,0.868,1.276,0.897,1.602,1.177,0.477,0.844,0.794,��,13.1,��
2018/08/23,15:00,0.868,1.274,0.897,1.600,1.178,0.476,0.845,0.794,��,11.8,��
2018/08/23,15:10,0.868,1.275,0.898,1.602,1.178,0.479,0.846,0.794,��,12.7,��
2018/08/23,15:20,0.868,1.277,0.897,1.600,1.178,0.478,0.845,0.793,��쓌,15.3,��
2018/08/23,15:30,0.868,1.275,0.898,1.599,1.174,0.480,0.845,0.793,��,14.1,��
2018/08/23,15:40,0.867,1.274,0.898,1.597,1.176,0.478,0.843,0.794,��쓌,12.4,�L
2018/08/23,15:50,0.869,1.277,0.898,1.599,1.177,0.478,0.844,0.794,��,12.2,��
2018/08/23,16:00,0.867,1.277,0.898,1.598,1.179,0.478,0.844,0.794,��쓌,11.3,��
2018/08/23,16:10,0.866,1.277,0.899,1.601,1.177,0.478,0.843,0.792,��,11.0,��
2018/08/23,16:20,0.865,1.268,0.899,1.599,1.175,0.476,0.844,0.794,��,10.0,��
2018/08/23,16:30,0.866,1.277,0.898,1.603,1.175,0.475,0.844,0.793,��,9.2,��
2018/08/23,16:40,0.865,1.276,0.898,1.602,1.177,0.476,0.843,0.794,��,8.7,��
2018/08/23,16:50,0.866,1.274,0.897,1.600,1.174,0.477,0.844,0.795,��,8.5,��
2018/08/23,17:00,0.866,1.275,0.896,1.602,1.174,0.475,0.842,0.794,��,9.1,��
2018/08/23,17:10,0.867,1.277,0.897,1.602,1.176,0.476,0.843,0.795,��,8.8,��
2018/08/23,17:20,0.868,1.277,0.898,1.600,1.174,0.476,0.843,0.795,��,9.7,��
2018/08/23,17:30,0.867,1.277,0.898,1.603,1.176,0.478,0.844,0.793,��,9.2,��
2018/08/23,17:40,0.866,1.276,0.897,1.602,1.175,0.476,0.843,0.795,��,9.5,��
2018/08/23,17:50,0.869,1.275,0.897,1.603,1.173,0.477,0.843,0.794,��,8.8,��
2018/08/23,18:00,0.867,1.278,0.898,1.601,1.172,0.478,0.842,0.796,��,8.2,��
2018/08/23,18:10,0.868,1.278,0.896,1.598,1.174,0.475,0.842,0.794,��,7.8,��
2018/08/23,18:20,0.865,1.279,0.898,1.601,1.175,0.478,0.845,0.795,��,8.3,��
2018/08/23,18:30,0.865,1.274,0.897,1.602,1.175,0.476,0.844,0.794,��,9.1,��
2018/08/23,18:40,0.867,1.276,0.898,1.603,1.173,0.478,0.844,0.795,��,8.4,��
2018/08/23,18:50,0.866,1.279,0.897,1.602,1.177,0.476,0.843,0.794,��,8.9,��
2018/08/23,19:00,0.866,1.276,0.898,1.602,1.173,0.478,0.843,0.796,��,9.7,��
2018/08/23,19:10,0.865,1.277,0.899,1.601,1.176,0.476,0.841,0.795,��,8.2,��
2018/08/23,19:20,0.866,1.281,0.896,1.602,1.176,0.477,0.844,0.795,��,9.5,�L
2018/08/23,19:30,0.867,1.279,0.897,1.603,1.176,0.477,0.844,0.794,��,11.3,�L
2018/08/23,19:40,0.867,1.279,0.898,1.600,1.177,0.478,0.843,0.795,��,9.5,��
2018/08/23,19:50,0.867,1.277,0.897,1.602,1.175,0.477,0.843,0.794,��,11.7,�L
2018/08/23,20:00,0.865,1.279,0.898,1.601,1.175,0.478,0.843,0.796,��,10.2,�L
2018/08/23,20:10,0.865,1.278,0.899,1.603,1.177,0.477,0.844,0.794,��쓌,10.6,��
2018/08/23,20:20,0.865,1.274,0.898,1.602,1.172,0.477,0.843,0.796,��,10.9,��
2018/08/23,20:30,0.865,1.277,0.898,1.602,1.173,0.478,0.843,0.795,��,10.2,��
2018/08/23,20:40,0.866,1.276,0.896,1.602,1.174,0.477,0.842,0.795,��,9.7,��
2018/08/23,20:50,0.865,1.278,0.899,1.598,1.177,0.479,0.843,0.794,��,10.7,�L
2018/08/23,21:00,0.864,1.276,0.896,1.599,1.174,0.477,0.843,0.793,��,10.2,��
2018/08/23,21:10,0.866,1.274,0.898,1.602,1.175,0.478,0.840,0.794,��,10.9,��
2018/08/23,21:20,0.865,1.279,0.897,1.602,1.172,0.478,0.843,0.795,��,9.9,��
2018/08/23,21:30,0.863,1.275,0.897,1.603,1.172,0.476,0.841,0.795,��,10.6,��
2018/08/23,21:40,0.865,1.274,0.898,1.601,1.172,0.477,0.842,0.795,��,11.3,��
2018/08/23,21:50,0.864,1.272,0.895,1.603,1.173,0.477,0.842,0.793,��,12.5,��
2018/08/23,22:00,0.863,1.270,0.897,1.600,1.174,0.476,0.841,0.794,��,12.4,��
2018/08/23,22:10,0.862,1.273,0.899,1.601,1.176,0.476,0.842,0.795,��,11.6,��
2018/08/23,22:20,0.862,1.274,0.898,1.599,1.172,0.475,0.842,0.795,��,11.7,��
2018/08/23,22:30,0.862,1.272,0.898,1.599,1.174,0.477,0.842,0.794,��,10.9,��
2018/08/23,22:40,0.863,1.271,0.898,1.600,1.176,0.477,0.843,0.795,��,12.1,��
2018/08/23,22:50,0.863,1.272,0.897,1.603,1.174,0.478,0.842,0.795,��,13.0,��
2018/08/23,23:00,0.863,1.272,0.898,1.600,1.174,0.476,0.843,0.794,��,10.5,�L
2018/08/23,23:10,0.862,1.272,0.899,1.600,1.173,0.478,0.842,0.795,��,11.3,��
2018/08/23,23:20,0.862,1.272,0.896,1.602,1.173,0.476,0.843,0.795,��,11.6,�L
2018/08/23,23:30,0.863,1.272,0.897,1.602,1.174,0.476,0.843,0.796,��,11.6,��
2018/08/23,23:40,0.862,1.271,0.897,1.604,1.175,0.477,0.843,0.794,��,12.7,��
2018/08/23,23:50,0.861,1.274,0.897,1.600,1.171,0.476,0.842,0.795,��,13.0,��
